Location: Tel Aviv
(32.0670°N, 34.7670°E)
Time: 22:39:57
(UTC+03:00)

ACS3 Solar Sail - Visible Passes

Search period start: 11 June 2026 00:00
Search period end: 21 June 2026 00:00
Orbit: 871 x 959 km, 97.2° (Epoch: 11 June)

Date Brightness Start Highest point End Pass type
(mag) Time Alt. Az. Time Alt. Az. Time Alt. Az.
11 Jun 2.5 00:55:53 10° NNE 00:59:52 46° NNE 00:59:52 46° NNE visible
11 Jun 3.8 02:41:01 10° NW 02:43:08 12° WNW 02:43:14 12° WNW visible
12 Jun 2.4 01:02:53 10° NNE 01:07:01 50° NNE 01:07:01 50° NNE visible
13 Jun 2.3 01:09:56 10° N 01:14:09 51° N 01:14:09 51° N visible
13 Jun 4.0 23:37:33 10° ENE 23:37:54 11° ENE 23:37:54 11° ENE visible
14 Jun 2.3 01:16:57 10° N 01:21:16 50° NNW 01:21:16 50° NNW visible
14 Jun 3.9 23:43:46 10° NE 23:45:00 13° ENE 23:45:00 13° ENE visible
15 Jun 2.4 01:24:01 10° N 01:28:22 46° NNW 01:28:22 46° NNW visible
15 Jun 3.7 23:50:14 10° NE 23:52:05 16° ENE 23:52:05 16° ENE visible
16 Jun 2.5 01:31:05 10° N 01:35:27 42° NW 01:35:27 42° NW visible
16 Jun 3.6 23:56:48 10° NE 23:59:10 19° ENE 23:59:10 19° ENE visible
17 Jun 2.7 01:38:10 10° N 01:42:31 37° NW 01:42:31 37° NW visible
18 Jun 3.4 00:03:25 10° NE 00:06:13 22° ENE 00:06:13 22° ENE visible
18 Jun 2.8 01:45:17 10° N 01:49:34 33° NW 01:49:34 33° NW visible
19 Jun 3.2 00:10:07 10° NNE 00:13:15 26° ENE 00:13:15 26° ENE visible
19 Jun 3.0 01:52:24 10° NNW 01:56:37 28° WNW 01:56:37 28° WNW visible
20 Jun 3.0 00:16:50 10° NNE 00:20:16 30° ENE 00:20:16 30° ENE visible
20 Jun 3.2 01:59:33 10° NNW 02:03:38 25° WNW 02:03:38 25° WNW visible
